Weather History for Altoona, PA

Change the Weather History Date:

Tuesday, November 19, 2013

  Actual Average Record
Temperature  
Mean Temperature 33 °F 40 °F  
Max Temperature 39 °F 48 °F 72 °F (1985)
Min Temperature 26 °F 33 °F 18 °F (1989)
Degree Days  
Heating Degree Days 32 25  
Month to date heating degree days 411 406  
Since 1 July heating degree days 918 1013  
Cooling Degree Days 0 0  
Month to date cooling degree days 0 0  
Year to date cooling degree days 695 522  
Moisture  
Dew Point 24 °F    
Average Humidity 67    
Maximum Humidity 75    
Minimum Humidity 59    
Precipitation  
Precipitation 0.00 in 0.12 in 1.77 in (2003)
Month to date precipitation 0.91 2.04  
Year to date precipitation 25.89 29.02  
Sea Level Pressure  
Sea Level Pressure 30.21 in    
Wind  
Wind Speed 12 mph (NNW)    
Max Wind Speed 26 mph    
Max Gust Speed 36 mph    
Visibility 10 miles    
Events      
T = Trace of Precipitation, MM = Missing Value Source: NWS Daily Summary

Daily Weather History Graph

Daily Weather History Graph

Search for Another Location

Airport:

Trip Planner

Search our weather history database for the weather conditions in past years. The results will help you decide how hot, cold, wet, or windy it might be!

Date:

Astronomy

Nov. 19, 2013 Rise Set
Actual Time 7:03 AM EST 4:53 PM EST
Civil Twilight 6:34 AM EST 5:22 PM EST
Nautical Twilight 6:01 AM EST 5:55 PM EST
Astronomical Twilight 5:29 AM EST 6:28 PM EST
Moon 6:42 PM EST (11/19) 8:41 AM EST (11/19)
Length of Visible Light 10h 48m
Length of Day
9h 49m
Waning Gibbous, 96% of the Moon is Illuminated
Nov 19
Waning Gibbous
Nov 25
Last Quarter
Dec 2
New
Dec 9
First Quarter
Dec 17
Full

Hourly Weather History & Observations

Time (EST) Temp. Windchill Dew Point Humidity Pressure Visibility Wind Dir Wind Speed Gust Speed Precip Events Conditions
12:53 AM 39.0 °F 29.9 °F 26.1 °F 60% 29.99 in 10.0 mi WNW 17.3 mph 28.8 mph N/A   Overcast
1:53 AM 37.9 °F 27.9 °F 27.0 °F 65% 30.01 in 10.0 mi NW 19.6 mph 26.5 mph N/A   Overcast
2:44 AM 37.0 °F 26.7 °F 27.0 °F 67% 30.01 in 10.0 mi NNW 19.6 mph 28.8 mph N/A   Overcast
2:53 AM 36.0 °F 25.3 °F 27.0 °F 70% 30.04 in 10.0 mi NNW 19.6 mph - N/A   Overcast
3:53 AM 35.1 °F 24.8 °F 24.1 °F 64% 30.06 in 10.0 mi NNW 17.3 mph 26.5 mph N/A   Overcast
4:11 AM 35.1 °F 24.5 °F 23.0 °F 61% 30.04 in 10.0 mi NNW 18.4 mph 24.2 mph N/A   Overcast
4:53 AM 35.1 °F 25.5 °F 23.0 °F 61% 30.09 in 10.0 mi NW 15.0 mph 24.2 mph N/A   Overcast
5:53 AM 35.1 °F 24.5 °F 23.0 °F 61% 30.11 in 10.0 mi NW 18.4 mph 28.8 mph N/A   Overcast
6:53 AM 35.1 °F 25.5 °F 23.0 °F 61% 30.14 in 10.0 mi NNW 15.0 mph 24.2 mph N/A   Overcast
7:53 AM 35.1 °F 25.5 °F 24.1 °F 64% 30.16 in 10.0 mi NNW 15.0 mph 25.3 mph N/A   Overcast
8:53 AM 36.0 °F 26.7 °F 24.1 °F 62% 30.19 in 10.0 mi NW 15.0 mph 24.2 mph N/A   Overcast
9:19 AM 36.0 °F 26.3 °F 25.0 °F 64% 30.16 in 10.0 mi NW 16.1 mph 21.9 mph N/A   Overcast
9:53 AM 36.0 °F 26.7 °F 25.0 °F 64% 30.21 in 10.0 mi NW 15.0 mph 20.7 mph N/A   Overcast
10:53 AM 37.0 °F 28.9 °F 25.0 °F 62% 30.23 in 10.0 mi NNW 12.7 mph - N/A   Overcast
11:16 AM 37.9 °F 28.2 °F 25.0 °F 60% 30.19 in 10.0 mi NNW 18.4 mph 25.3 mph N/A   Overcast
11:53 AM 37.9 °F 29.2 °F 25.0 °F 60% 30.23 in 10.0 mi NW 15.0 mph 20.7 mph N/A   Overcast
12:53 PM 37.9 °F 30.9 °F 25.0 °F 60% 30.24 in 10.0 mi NNW 10.4 mph - N/A   Overcast
1:53 PM 37.9 °F 30.9 °F 25.0 °F 60% 30.25 in 10.0 mi NW 10.4 mph - N/A   Overcast
2:53 PM 37.9 °F 30.0 °F 25.0 °F 60% 30.26 in 10.0 mi WNW 12.7 mph - N/A   Overcast
3:53 PM 37.9 °F 30.5 °F 24.1 °F 57% 30.27 in 10.0 mi WNW 11.5 mph - N/A   Overcast
4:53 PM 36.0 °F 30.3 °F 23.0 °F 59% 30.29 in 10.0 mi NW 6.9 mph - N/A   Scattered Clouds
5:53 PM 34.0 °F 29.8 °F 21.9 °F 61% 30.32 in 10.0 mi Variable 4.6 mph - N/A   Partly Cloudy
6:53 PM 34.0 °F 28.0 °F 21.9 °F 61% 30.33 in 10.0 mi NNW 6.9 mph - N/A   Clear
7:53 PM 33.1 °F 27.7 °F 21.9 °F 64% 30.35 in 10.0 mi North 5.8 mph - N/A   Clear
8:53 PM 32.0 °F 24.8 °F 21.9 °F 66% 30.38 in 10.0 mi North 8.1 mph - N/A   Clear
9:53 PM 28.9 °F 22.8 °F 21.0 °F 72% 30.41 in 10.0 mi North 5.8 mph - N/A   Clear
10:53 PM 28.9 °F 22.8 °F 21.0 °F 72% 30.41 in 10.0 mi North 5.8 mph - N/A   Clear
11:53 PM 26.1 °F - 19.9 °F 78% 30.41 in 10.0 mi Calm Calm - N/A   Clear